Regional Weather Roundup
Issued by NWS

Home | Current Version | Previous Version | Text Only | Print | Product List | Glossary On
Versions: 1 2 3 4 5 6 7 8 9 10 11 12 13 14 15 16 17 18 19 20 21 22 23 24 25 26 27 28 29 30 31 32 33 34 35 36 37 38 39 40 41 42 43 44 45 46 47 48 49 50
000
ASUS44 KMEG 201800
RWRTN
TENNESSEE HOURLY STATE WEATHER ROUNDUP
NATIONAL WEATHER SERVICE MEMPHIS TN
100 PM CDT MON OCT 20 2014

TNZ002-004-019-021-049-052-054-088>092-201900-
WEST TENNESSEE

CITY           SKY/WX    TMP DP  RH WIND       PRES   REMARKS
MEMPHIS INTL   PTSUNNY   69  49  48 W8        30.06F
NWS MEMPHIS      N/A     69 N/A N/A MISG        N/A
JACKSON        MOSUNNY   67  49  52 SW7       30.06F
DYERSBURG      MOSUNNY   68  45  42 SW12      30.05F
UNION CITY     MOSUNNY   68  52  56 SW9       30.01F
PARIS          MOSUNNY   64  48  55 W12       30.03F
LEXINGTON      SUNNY     64  52  63 VRB6      30.05F
SAVANNAH       MOSUNNY   66  48  52 W3        30.06F
$$

TNZ008-025-027-028-033-062-065-066-201900-
NORTH MIDDLE TENNESSEE

CITY           SKY/WX    TMP DP  RH WIND       PRES   REMARKS
NASHVILLE      PTSUNNY   65  48  54 SW7       30.04F
CLARKSVILLE    PTSUNNY   64  50  60 SW9       30.01F
COOKEVILLE     MOSUNNY   63  52  67 SW8       30.04F
CROSSVILLE     CLOUDY    61  45  55 VRB5      30.05F
$$

TNZ061-075-076-078-094-096-097-201900-
SOUTH MIDDLE TENNESSEE

CITY           SKY/WX    TMP DP  RH WIND       PRES   REMARKS
WINCHESTER     SUNNY     66  48  52 W5        30.06F
MCMINNVILLE    MOSUNNY   66  52  59 CALM      30.04F
SHELBYVILLE    MOSUNNY   66  52  59 VRB6      30.05F
$$

TNZ017-018-042-046-047-201900-
NORTHEAST TENNESSEE

CITY           SKY/WX    TMP DP  RH WIND       PRES   REMARKS
TRI CITIES     MOSUNNY   64  47  53 SW15      30.03F
ELIZABETHTON   PTCLDY    63  46  55 NW9       30.04F
$$

TNZ012-013-036-069-073-074-201900-
CENTRAL EAST TENNESSEE

CITY           SKY/WX    TMP DP  RH WIND       PRES   REMARKS
KNOXVILLE      PTSUNNY   66  50  56 SW18      30.02F
OAK RIDGE      MOSUNNY   66  49  54 VRB7      30.05F
GATLINBURG     CLEAR     68  48  49 W8        30.02F
MORRISTOWN     PTCLDY    66  52  59 W10       30.04F
$$

TNZ083-085-099-201900-
SOUTHEAST TENNESSEE

CITY           SKY/WX    TMP DP  RH WIND       PRES   REMARKS
CHATTANOOGA    PTSUNNY   70  51  51 VRB3      30.04F
$$

SKY/WX REPORTED AS FAIR MEANS FEW OR NO CLOUDS BELOW
12 THOUSAND FEET.



USA.gov is the U.S. government's official web portal to all federal, state and local government web resources and services.